Location: Lahitte
(43.6596°N, 0.6805°E)
Time: 20:50:43
(UTC+00:00)

Cosmos 841 Rocket - Pass Details

Date: 15 May 2026
Orbit: 741 x 767 km, 74.0° (Epoch: 8 June)

Event Time Altitude Azimuth Distance (km) Brightness Sun altitude
Exits shadow 23:27:22 58° 270° (W) 886 3.7 -27.0°
Maximum altitude 23:27:47 60° 293° (WNW) 870 3.8 -27.0°
Drops below altitude 10° 23:32:58 10° 14° (NNE) 2,309 6.9 -27.1°
Sets 23:35:24 0° 18° (NNE) 3,242 7.8 -27.1°
